Time,TemperatureF,DewpointF,PressureIn,WindDirection,WindDirectionDegrees,WindSpeedMPH,WindSpeedGustMPH,Humidity,HourlyPrecipIn,Conditions,Clouds,dailyrainin,SoftwareType,DateUTC
2013-02-24 00:01:00,53.0,-99.9,-100.00,ESE,115,9.0,14.0,-999,-99.99,,,-99.99,,2013-02-24 05:01:00,
2013-02-24 00:11:00,53.0,-99.9,-100.00,SSE,150,11.0,18.0,-999,-99.99,,,-99.99,,2013-02-24 05:11:00,
2013-02-24 00:22:00,53.0,-99.9,-100.00,SSE,150,10.0,15.0,-999,-99.99,,,-99.99,,2013-02-24 05:22:00,
2013-02-24 00:32:00,53.0,-99.9,-100.00,South,185,6.0,10.0,-999,-99.99,,,-99.99,,2013-02-24 05:32:00,
2013-02-24 00:42:00,53.0,-99.9,-100.00,South,185,9.0,12.0,-999,-99.99,,,-99.99,,2013-02-24 05:42:00,
2013-02-24 00:52:00,53.0,-99.9,-100.00,SSE,155,9.0,14.0,-999,-99.99,,,-99.99,,2013-02-24 05:52:00,
2013-02-24 01:02:00,53.0,-99.9,-100.00,SE,145,11.0,15.0,-999,-99.99,,,-99.99,,2013-02-24 06:02:00,
2013-02-24 01:12:00,53.0,-99.9,-100.00,SSW,200,9.0,15.0,-999,-99.99,,,-99.99,,2013-02-24 06:12:00,
2013-02-24 01:22:00,53.0,-99.9,-100.00,SW,235,8.0,10.0,-999,-99.99,,,-99.99,,2013-02-24 06:22:00,
2013-02-24 01:32:00,53.0,-99.9,-100.00,West,270,9.0,11.0,-999,-99.99,,,-99.99,,2013-02-24 06:32:00,
2013-02-24 01:42:00,53.0,-99.9,-100.00,West,275,9.0,12.0,-999,-99.99,,,-99.99,,2013-02-24 06:42:00,
2013-02-24 01:52:00,53.0,-99.9,-100.00,West,275,11.0,14.0,-999,-99.99,,,-99.99,,2013-02-24 06:52:00,
2013-02-24 02:01:00,52.0,-99.9,-100.00,West,275,12.0,16.0,-999,-99.99,,,-99.99,,2013-02-24 07:01:00,
2013-02-24 02:12:00,51.0,-99.9,-100.00,West,270,12.0,17.0,-999,-99.99,,,-99.99,,2013-02-24 07:12:00,
2013-02-24 02:22:00,51.0,-99.9,-100.00,West,275,14.0,19.0,-999,-99.99,,,-99.99,,2013-02-24 07:22:00,
2013-02-24 02:32:00,51.0,-99.9,-100.00,West,275,13.0,21.0,-999,-99.99,,,-99.99,,2013-02-24 07:32:00,
2013-02-24 02:42:00,50.0,-99.9,-100.00,West,275,14.0,18.0,-999,-99.99,,,-99.99,,2013-02-24 07:42:00,
2013-02-24 02:52:00,50.0,-99.9,-100.00,West,275,12.0,18.0,-999,-99.99,,,-99.99,,2013-02-24 07:52:00,
2013-02-24 03:01:00,50.0,-99.9,-100.00,WNW,300,11.0,20.0,-999,-99.99,,,-99.99,,2013-02-24 08:01:00,
2013-02-24 03:11:00,49.0,-99.9,-100.00,West,270,14.0,21.0,-999,-99.99,,,-99.99,,2013-02-24 08:11:00,
2013-02-24 03:22:00,49.0,-99.9,-100.00,West,270,10.0,17.0,-999,-99.99,,,-99.99,,2013-02-24 08:22:00,
2013-02-24 03:32:00,49.0,-99.9,-100.00,West,280,11.0,16.0,-999,-99.99,,,-99.99,,2013-02-24 08:32:00,
2013-02-24 03:42:00,48.0,-99.9,-100.00,WNW,290,16.0,18.0,-999,-99.99,,,-99.99,,2013-02-24 08:42:00,
2013-02-24 03:54:00,47.0,-99.9,-100.00,West,275,11.0,18.0,-999,-99.99,,,-99.99,,2013-02-24 08:54:00,
2013-02-24 04:02:00,47.0,-99.9,-100.00,West,275,12.0,19.0,-999,-99.99,,,-99.99,,2013-02-24 09:02:00,
2013-02-24 04:11:00,47.0,-99.9,-100.00,West,275,10.0,12.0,-999,-99.99,,,-99.99,,2013-02-24 09:11:00,
2013-02-24 04:22:00,47.0,-99.9,-100.00,West,270,11.0,15.0,-999,-99.99,,,-99.99,,2013-02-24 09:22:00,
2013-02-24 04:32:00,47.0,-99.9,-100.00,WNW,290,9.0,16.0,-999,-99.99,,,-99.99,,2013-02-24 09:32:00,
2013-02-24 04:42:00,47.0,-99.9,-100.00,West,270,11.0,16.0,-999,-99.99,,,-99.99,,2013-02-24 09:42:00,
2013-02-24 04:52:00,46.0,-99.9,-100.00,WNW,290,11.0,16.0,-999,-99.99,,,-99.99,,2013-02-24 09:52:00,
2013-02-24 05:01:00,46.0,-99.9,-100.00,WNW,285,9.0,15.0,-999,-99.99,,,-99.99,,2013-02-24 10:01:00,
2013-02-24 05:11:00,45.0,-99.9,-100.00,West,280,11.0,17.0,-999,-99.99,,,-99.99,,2013-02-24 10:11:00,
2013-02-24 05:22:00,45.0,-99.9,-100.00,WNW,295,8.0,15.0,-999,-99.99,,,-99.99,,2013-02-24 10:22:00,
2013-02-24 05:32:00,45.0,-99.9,-100.00,WNW,285,8.0,13.0,-999,-99.99,,,-99.99,,2013-02-24 10:32:00,
2013-02-24 05:42:00,45.0,-99.9,-100.00,West,270,9.0,11.0,-999,-99.99,,,-99.99,,2013-02-24 10:42:00,
2013-02-24 05:52:00,45.0,-99.9,-100.00,West,270,7.0,13.0,-999,-99.99,,,-99.99,,2013-02-24 10:52:00,
2013-02-24 06:01:00,45.0,-99.9,-100.00,West,270,9.0,11.0,-999,-99.99,,,-99.99,,2013-02-24 11:01:00,
2013-02-24 06:11:00,45.0,-99.9,-100.00,WNW,300,10.0,14.0,-999,-99.99,,,-99.99,,2013-02-24 11:11:00,
2013-02-24 06:22:00,45.0,-99.9,-100.00,West,270,7.0,15.0,-999,-99.99,,,-99.99,,2013-02-24 11:22:00,
2013-02-24 06:32:00,45.0,-99.9,-100.00,West,275,3.0,12.0,-999,-99.99,,,-99.99,,2013-02-24 11:32:00,
2013-02-24 06:42:00,44.0,-99.9,-100.00,West,275,11.0,15.0,-999,-99.99,,,-99.99,,2013-02-24 11:42:00,
2013-02-24 06:53:00,44.0,-99.9,-100.00,West,270,11.0,15.0,-999,-99.99,,,-99.99,,2013-02-24 11:53:00,
2013-02-24 07:02:00,44.0,-99.9,-100.00,West,270,11.0,15.0,-999,-99.99,,,-99.99,,2013-02-24 12:02:00,
2013-02-24 07:11:00,44.0,-99.9,-100.00,West,270,10.0,16.0,-999,-99.99,,,-99.99,,2013-02-24 12:11:00,
2013-02-24 07:22:00,44.0,-99.9,-100.00,West,275,9.0,17.0,-999,-99.99,,,-99.99,,2013-02-24 12:22:00,
2013-02-24 07:33:00,44.0,-99.9,-100.00,West,275,9.0,16.0,-999,-99.99,,,-99.99,,2013-02-24 12:33:00,
2013-02-24 07:46:00,44.0,-99.9,-100.00,West,275,14.0,19.0,-999,-99.99,,,-99.99,,2013-02-24 12:46:00,
2013-02-24 08:01:00,44.0,-99.9,-100.00,West,275,11.0,21.0,-999,-99.99,,,-99.99,,2013-02-24 13:01:00,
2013-02-24 08:16:00,44.0,-99.9,-100.00,West,270,11.0,18.0,-999,-99.99,,,-99.99,,2013-02-24 13:16:00,
2013-02-24 08:27:00,44.0,-99.9,-100.00,West,275,10.0,17.0,-999,-99.99,,,-99.99,,2013-02-24 13:27:00,
2013-02-24 08:36:00,44.0,-99.9,-100.00,WNW,300,10.0,18.0,-999,-99.99,,,-99.99,,2013-02-24 13:36:00,
2013-02-24 08:46:00,44.0,-99.9,-100.00,West,270,11.0,15.0,-999,-99.99,,,-99.99,,2013-02-24 13:46:00,
2013-02-24 08:56:00,44.0,-99.9,-100.00,WNW,290,9.0,17.0,-999,-99.99,,,-99.99,,2013-02-24 13:56:00,
2013-02-24 09:05:00,44.0,-99.9,-100.00,WNW,295,12.0,18.0,-999,-99.99,,,-99.99,,2013-02-24 14:05:00,
2013-02-24 09:15:00,44.0,-99.9,-100.00,WNW,300,13.0,17.0,-999,-99.99,,,-99.99,,2013-02-24 14:15:00,
2013-02-24 09:26:00,44.0,-99.9,-100.00,WNW,300,16.0,18.0,-999,-99.99,,,-99.99,,2013-02-24 14:26:00,
2013-02-24 09:35:00,44.0,-99.9,-100.00,WNW,290,12.0,18.0,-999,-99.99,,,-99.99,,2013-02-24 14:35:00,
2013-02-24 09:46:00,44.0,-99.9,-100.00,WNW,295,11.0,17.0,-999,-99.99,,,-99.99,,2013-02-24 14:46:00,
2013-02-24 09:55:00,44.0,-99.9,-100.00,WNW,285,11.0,16.0,-999,-99.99,,,-99.99,,2013-02-24 14:55:00,
2013-02-24 10:04:00,45.0,-99.9,-100.00,NW,315,8.0,15.0,-999,-99.99,,,-99.99,,2013-02-24 15:04:00,
2013-02-24 10:15:00,45.0,-99.9,-100.00,NW,320,14.0,17.0,-999,-99.99,,,-99.99,,2013-02-24 15:15:00,
2013-02-24 10:24:00,45.0,-99.9,-100.00,NW,315,14.0,17.0,-999,-99.99,,,-99.99,,2013-02-24 15:24:00,
2013-02-24 10:32:00,45.0,-99.9,-100.00,WNW,300,10.0,17.0,-999,-99.99,,,-99.99,,2013-02-24 15:32:00,
2013-02-24 10:43:00,45.0,-99.9,-100.00,WNW,295,11.0,16.0,-999,-99.99,,,-99.99,,2013-02-24 15:43:00,
2013-02-24 10:53:00,46.0,-99.9,-100.00,NW,305,11.0,15.0,-999,-99.99,,,-99.99,,2013-02-24 15:53:00,
2013-02-24 11:02:00,46.0,-99.9,-100.00,NW,305,11.0,15.0,-999,-99.99,,,-99.99,,2013-02-24 16:02:00,
2013-02-24 11:12:00,47.0,-99.9,-100.00,NW,315,12.0,16.0,-999,-99.99,,,-99.99,,2013-02-24 16:12:00,
2013-02-24 11:22:00,48.0,-99.9,-100.00,NW,305,13.0,17.0,-999,-99.99,,,-99.99,,2013-02-24 16:22:00,
2013-02-24 11:32:00,49.0,-99.9,-100.00,NW,305,8.0,15.0,-999,-99.99,,,-99.99,,2013-02-24 16:32:00,
2013-02-24 11:42:00,50.0,-99.9,-100.00,North,350,8.0,14.0,-999,-99.99,,,-99.99,,2013-02-24 16:42:00,
2013-02-24 11:52:00,50.0,-99.9,-100.00,NW,315,6.0,14.0,-999,-99.99,,,-99.99,,2013-02-24 16:52:00,
2013-02-24 12:01:00,51.0,-99.9,-100.00,NW,310,8.0,11.0,-999,-99.99,,,-99.99,,2013-02-24 17:01:00,
2013-02-24 12:12:00,51.0,-99.9,-100.00,NW,315,9.0,15.0,-999,-99.99,,,-99.99,,2013-02-24 17:12:00,
2013-02-24 12:22:00,51.0,-99.9,-100.00,NW,315,9.0,15.0,-999,-99.99,,,-99.99,,2013-02-24 17:22:00,
2013-02-24 12:32:00,53.0,-99.9,-100.00,NW,325,8.0,15.0,-999,-99.99,,,-99.99,,2013-02-24 17:32:00,
2013-02-24 12:42:00,53.0,-99.9,-100.00,WNW,300,9.0,13.0,-999,-99.99,,,-99.99,,2013-02-24 17:42:00,
2013-02-24 12:53:00,54.0,-99.9,-100.00,NW,325,6.0,14.0,-999,-99.99,,,-99.99,,2013-02-24 17:53:00,
2013-02-24 13:02:00,54.0,-99.9,-100.00,NW,325,6.0,14.0,-999,-99.99,,,-99.99,,2013-02-24 18:02:00,
2013-02-24 13:12:00,55.0,-99.9,-100.00,NNW,330,8.0,14.0,-999,-99.99,,,-99.99,,2013-02-24 18:12:00,
2013-02-24 13:22:00,55.0,-99.9,-100.00,NW,325,9.0,16.0,-999,-99.99,,,-99.99,,2013-02-24 18:22:00,
2013-02-24 13:32:00,55.0,-99.9,-100.00,NW,315,6.0,16.0,-999,-99.99,,,-99.99,,2013-02-24 18:32:00,
2013-02-24 13:42:00,56.0,-99.9,-100.00,NW,320,6.0,14.0,-999,-99.99,,,-99.99,,2013-02-24 18:42:00,
2013-02-24 13:52:00,57.0,-99.9,-100.00,NNW,335,4.0,8.0,-999,-99.99,,,-99.99,,2013-02-24 18:52:00,
2013-02-24 14:02:00,58.0,-99.9,-100.00,SSW,195,3.0,14.0,-999,-99.99,,,-99.99,,2013-02-24 19:02:00,
2013-02-24 14:12:00,58.0,-99.9,-100.00,NW,320,4.0,10.0,-999,-99.99,,,-99.99,,2013-02-24 19:12:00,
2013-02-24 14:22:00,58.0,-99.9,-100.00,WNW,290,3.0,12.0,-999,-99.99,,,-99.99,,2013-02-24 19:22:00,
2013-02-24 14:32:00,58.0,-99.9,-100.00,North,355,6.0,14.0,-999,-99.99,,,-99.99,,2013-02-24 19:32:00,
2013-02-24 14:42:00,58.0,-99.9,-100.00,NNW,345,7.0,13.0,-999,-99.99,,,-99.99,,2013-02-24 19:42:00,
2013-02-24 14:52:00,59.0,-99.9,-100.00,WNW,285,4.0,11.0,-999,-99.99,,,-99.99,,2013-02-24 19:52:00,
2013-02-24 15:02:00,60.0,-99.9,-100.00,NW,315,7.0,11.0,-999,-99.99,,,-99.99,,2013-02-24 20:02:00,
2013-02-24 15:11:00,59.0,-99.9,-100.00,North,0,2.0,14.0,-999,-99.99,,,-99.99,,2013-02-24 20:11:00,
2013-02-24 15:22:00,59.0,-99.9,-100.00,NNW,345,7.0,12.0,-999,-99.99,,,-99.99,,2013-02-24 20:22:00,
2013-02-24 15:32:00,59.0,-99.9,-100.00,NNW,340,9.0,13.0,-999,-99.99,,,-99.99,,2013-02-24 20:32:00,
2013-02-24 15:42:00,60.0,-99.9,-100.00,NW,305,3.0,9.0,-999,-99.99,,,-99.99,,2013-02-24 20:42:00,
2013-02-24 15:52:00,59.0,-99.9,-100.00,NNE,15,4.0,9.0,-999,-99.99,,,-99.99,,2013-02-24 20:52:00,
2013-02-24 16:02:00,59.0,-99.9,-100.00,ENE,65,5.0,8.0,-999,-99.99,,,-99.99,,2013-02-24 21:02:00,
2013-02-24 16:11:00,60.0,-99.9,-100.00,ENE,70,4.0,8.0,-999,-99.99,,,-99.99,,2013-02-24 21:11:00,
2013-02-24 16:22:00,60.0,-99.9,-100.00,ENE,70,4.0,8.0,-999,-99.99,,,-99.99,,2013-02-24 21:22:00,
2013-02-24 16:32:00,60.0,-99.9,-100.00,NE,40,4.0,6.0,-999,-99.99,,,-99.99,,2013-02-24 21:32:00,
2013-02-24 16:42:00,61.0,-99.9,-100.00,East,85,3.0,9.0,-999,-99.99,,,-99.99,,2013-02-24 21:42:00,
2013-02-24 16:52:00,61.0,-99.9,-100.00,ENE,75,3.0,9.0,-999,-99.99,,,-99.99,,2013-02-24 21:52:00,
2013-02-24 17:01:00,61.0,-99.9,-100.00,East,80,4.0,8.0,-999,-99.99,,,-99.99,,2013-02-24 22:01:00,
2013-02-24 17:11:00,61.0,-99.9,-100.00,ENE,60,2.0,6.0,-999,-99.99,,,-99.99,,2013-02-24 22:11:00,
2013-02-24 17:22:00,62.0,-99.9,-100.00,ENE,70,2.0,6.0,-999,-99.99,,,-99.99,,2013-02-24 22:22:00,
2013-02-24 17:32:00,62.0,-99.9,-100.00,East,95,3.0,8.0,-999,-99.99,,,-99.99,,2013-02-24 22:32:00,
2013-02-24 17:42:00,61.0,-99.9,-100.00,South,175,4.0,6.0,-999,-99.99,,,-99.99,,2013-02-24 22:42:00,
2013-02-24 17:52:00,60.0,-99.9,-100.00,SSE,150,5.0,8.0,-999,-99.99,,,-99.99,,2013-02-24 22:52:00,
2013-02-24 18:02:00,60.0,-99.9,-100.00,SE,145,6.0,8.0,-999,-99.99,,,-99.99,,2013-02-24 23:02:00,
2013-02-24 18:11:00,60.0,-99.9,-100.00,South,185,6.0,8.0,-999,-99.99,,,-99.99,,2013-02-24 23:11:00,
2013-02-24 18:22:00,58.0,-99.9,-100.00,South,170,9.0,12.0,-999,-99.99,,,-99.99,,2013-02-24 23:22:00,
2013-02-24 18:32:00,58.0,-99.9,-100.00,South,175,9.0,13.0,-999,-99.99,,,-99.99,,2013-02-24 23:32:00,
2013-02-24 18:42:00,57.0,-99.9,-100.00,South,185,9.0,11.0,-999,-99.99,,,-99.99,,2013-02-24 23:42:00,
2013-02-24 18:52:00,57.0,-99.9,-100.00,South,185,6.0,11.0,-999,-99.99,,,-99.99,,2013-02-24 23:52:00,
2013-02-24 19:02:00,57.0,-99.9,-100.00,SSW,195,6.0,10.0,-999,-99.99,,,-99.99,,2013-02-25 00:02:00,
2013-02-24 19:11:00,57.0,-99.9,-100.00,South,170,3.0,7.0,-999,-99.99,,,-99.99,,2013-02-25 00:11:00,
2013-02-24 19:22:00,57.0,-99.9,-100.00,SE,140,2.0,4.0,-999,-99.99,,,-99.99,,2013-02-25 00:22:00,
2013-02-24 19:32:00,57.0,-99.9,-100.00,ESE,115,0.0,4.0,-999,-99.99,,,-99.99,,2013-02-25 00:32:00,
2013-02-24 19:42:00,56.0,-99.9,-100.00,NE,55,3.0,8.0,-999,-99.99,,,-99.99,,2013-02-25 00:42:00,
2013-02-24 19:52:00,57.0,-99.9,-100.00,SE,140,2.0,10.0,-999,-99.99,,,-99.99,,2013-02-25 00:52:00,
2013-02-24 20:02:00,56.0,-99.9,-100.00,SE,140,2.0,6.0,-999,-99.99,,,-99.99,,2013-02-25 01:02:00,
2013-02-24 20:11:00,56.0,-99.9,-100.00,SE,125,4.0,7.0,-999,-99.99,,,-99.99,,2013-02-25 01:11:00,
2013-02-24 20:22:00,56.0,-99.9,-100.00,SSE,165,4.0,6.0,-999,-99.99,,,-99.99,,2013-02-25 01:22:00,
2013-02-24 20:32:00,54.0,-99.9,-100.00,SSE,160,5.0,7.0,-999,-99.99,,,-99.99,,2013-02-25 01:32:00,
2013-02-24 20:42:00,54.0,-99.9,-100.00,South,180,4.0,7.0,-999,-99.99,,,-99.99,,2013-02-25 01:42:00,
2013-02-24 20:52:00,54.0,-99.9,-100.00,South,170,4.0,8.0,-999,-99.99,,,-99.99,,2013-02-25 01:52:00,
2013-02-24 21:01:00,53.0,-99.9,-100.00,SE,145,4.0,6.0,-999,-99.99,,,-99.99,,2013-02-25 02:01:00,
2013-02-24 21:11:00,53.0,-99.9,-100.00,SSE,155,4.0,6.0,-999,-99.99,,,-99.99,,2013-02-25 02:11:00,
2013-02-24 21:22:00,53.0,-99.9,-100.00,SSE,155,4.0,6.0,-999,-99.99,,,-99.99,,2013-02-25 02:22:00,
2013-02-24 21:32:00,53.0,-99.9,-100.00,SSE,155,4.0,6.0,-999,-99.99,,,-99.99,,2013-02-25 02:32:00,
2013-02-24 21:42:00,53.0,-99.9,-100.00,SE,135,1.0,4.0,-999,-99.99,,,-99.99,,2013-02-25 02:42:00,
2013-02-24 21:52:00,53.0,-99.9,-100.00,ESE,115,3.0,4.0,-999,-99.99,,,-99.99,,2013-02-25 02:52:00,
2013-02-24 22:02:00,53.0,-99.9,-100.00,SSE,155,4.0,4.0,-999,-99.99,,,-99.99,,2013-02-25 03:02:00,
2013-02-24 22:11:00,53.0,-99.9,-100.00,SE,145,4.0,6.0,-999,-99.99,,,-99.99,,2013-02-25 03:11:00,
2013-02-24 22:21:00,53.0,-99.9,-100.00,SE,130,4.0,7.0,-999,-99.99,,,-99.99,,2013-02-25 03:21:00,
2013-02-24 22:32:00,53.0,-99.9,-100.00,SE,125,4.0,6.0,-999,-99.99,,,-99.99,,2013-02-25 03:32:00,
2013-02-24 22:42:00,53.0,-99.9,-100.00,SE,145,5.0,7.0,-999,-99.99,,,-99.99,,2013-02-25 03:42:00,
2013-02-24 22:52:00,53.0,-99.9,-100.00,SE,145,4.0,5.0,-999,-99.99,,,-99.99,,2013-02-25 03:52:00,
2013-02-24 23:02:00,53.0,-99.9,-100.00,SE,145,2.0,5.0,-999,-99.99,,,-99.99,,2013-02-25 04:02:00,
2013-02-24 23:11:00,53.0,-99.9,-100.00,SE,130,1.0,4.0,-999,-99.99,,,-99.99,,2013-02-25 04:11:00,
2013-02-24 23:22:00,51.0,-99.9,-100.00,NE,45,1.0,5.0,-999,-99.99,,,-99.99,,2013-02-25 04:22:00,
2013-02-24 23:32:00,51.0,-99.9,-100.00,NE,50,1.0,3.0,-999,-99.99,,,-99.99,,2013-02-25 04:32:00,
2013-02-24 23:42:00,51.0,-99.9,-100.00,NE,35,4.0,5.0,-999,-99.99,,,-99.99,,2013-02-25 04:42:00,
2013-02-24 23:52:00,51.0,-99.9,-100.00,NNE,30,4.0,5.0,-999,-99.99,,,-99.99,,2013-02-25 04:52:00,